Time,TemperatureF,DewpointF,PressureIn,WindDirection,WindDirectionDegrees,WindSpeedMPH,WindSpeedGustMPH,Humidity,HourlyPrecipIn,Conditions,Clouds,dailyrainin,SoftwareType,DateUTC
2013-09-08 00:01:00,59.5,58.4,29.96,SW,218,0.0,0.0,96,0.00,,---,0.00,VWS V14.01,2013-09-08 04:01:00,
2013-09-08 00:03:00,59.5,58.1,29.96,SW,218,0.0,0.0,95,0.00,,---,0.00,VWS V14.01,2013-09-08 04:03:00,
2013-09-08 00:08:00,59.4,58.0,29.96,SW,218,0.0,0.0,95,0.00,,---,0.00,VWS V14.01,2013-09-08 04:08:00,
2013-09-08 00:13:00,59.3,57.9,29.95,SW,218,0.0,0.0,95,0.00,,---,0.00,VWS V14.01,2013-09-08 04:13:00,
2013-09-08 00:18:00,59.3,57.9,29.95,SW,218,0.0,0.0,95,0.00,,---,0.00,VWS V14.01,2013-09-08 04:18:00,
2013-09-08 00:23:00,59.1,57.7,29.95,SW,218,0.0,0.0,95,0.00,,---,0.00,VWS V14.01,2013-09-08 04:23:00,
2013-09-08 00:28:00,59.1,58.0,29.95,SW,218,0.0,0.0,96,0.00,,---,0.00,VWS V14.01,2013-09-08 04:28:00,
2013-09-08 00:33:00,59.1,58.0,29.95,SW,218,1.0,1.0,96,0.00,,---,0.00,VWS V14.01,2013-09-08 04:33:00,
2013-09-08 00:38:00,59.3,58.2,29.95,West,262,0.0,1.0,96,0.00,,---,0.00,VWS V14.01,2013-09-08 04:38:00,
2013-09-08 00:43:00,59.3,58.2,29.95,SW,221,0.0,1.0,96,0.00,,---,0.00,VWS V14.01,2013-09-08 04:43:00,
2013-09-08 00:48:00,59.4,58.5,29.95,SW,221,0.0,1.0,97,0.00,,---,0.00,VWS V14.01,2013-09-08 04:48:00,
2013-09-08 00:53:00,59.6,58.8,29.95,WSW,250,0.0,1.0,97,0.00,,---,0.00,VWS V14.01,2013-09-08 04:53:00,
2013-09-08 00:58:00,59.6,58.5,29.95,WSW,246,0.0,1.0,96,0.00,,---,0.00,VWS V14.01,2013-09-08 04:58:00,
2013-09-08 01:03:00,59.7,58.6,29.95,WSW,246,0.0,0.0,96,0.00,,---,0.00,VWS V14.01,2013-09-08 05:03:00,
2013-09-08 01:08:00,59.7,58.8,29.95,WSW,246,0.0,0.0,97,0.00,,---,0.00,VWS V14.01,2013-09-08 05:08:00,
2013-09-08 01:13:00,59.8,59.0,29.95,SW,235,0.0,1.0,97,0.00,,---,0.00,VWS V14.01,2013-09-08 05:13:00,
2013-09-08 01:18:00,60.1,59.2,29.95,SW,233,0.0,1.0,97,0.00,,---,0.00,VWS V14.01,2013-09-08 05:18:00,
2013-09-08 01:23:00,60.2,59.3,29.95,WSW,242,1.0,1.0,97,0.00,,---,0.00,VWS V14.01,2013-09-08 05:23:00,
2013-09-08 01:28:00,60.3,59.2,29.94,West,269,0.0,1.0,96,0.00,,---,0.00,VWS V14.01,2013-09-08 05:28:00,
2013-09-08 01:33:00,60.4,59.3,29.94,West,269,0.0,0.0,96,0.00,,---,0.00,VWS V14.01,2013-09-08 05:33:00,
2013-09-08 01:38:00,60.8,60.0,29.94,WSW,239,0.0,2.0,97,0.00,,---,0.00,VWS V14.01,2013-09-08 05:38:00,
2013-09-08 01:43:00,61.1,60.0,29.94,WSW,239,0.0,2.0,96,0.00,,---,0.00,VWS V14.01,2013-09-08 05:43:00,
2013-09-08 01:48:00,61.4,60.5,29.94,WSW,239,0.0,2.0,97,0.00,,---,0.00,VWS V14.01,2013-09-08 05:48:00,
2013-09-08 01:53:00,61.6,60.5,29.94,SW,217,0.0,2.0,96,0.00,,---,0.00,VWS V14.01,2013-09-08 05:53:00,
2013-09-08 01:58:00,61.9,60.8,29.93,SW,216,0.0,2.0,96,0.00,,---,0.00,VWS V14.01,2013-09-08 05:58:00,
2013-09-08 02:03:00,62.1,61.0,29.93,WSW,249,0.0,1.0,96,0.00,,---,0.00,VWS V14.01,2013-09-08 06:03:00,
2013-09-08 02:08:00,62.5,61.0,29.93,SW,226,0.0,1.0,95,0.00,,---,0.00,VWS V14.01,2013-09-08 06:08:00,
2013-09-08 02:13:00,62.8,61.3,29.93,WSW,243,0.0,1.0,95,0.00,,---,0.00,VWS V14.01,2013-09-08 06:13:00,
2013-09-08 02:18:00,63.1,61.3,29.93,WSW,245,0.0,1.0,94,0.00,,---,0.00,VWS V14.01,2013-09-08 06:18:00,
2013-09-08 02:23:00,63.4,61.7,29.93,West,266,0.0,2.0,94,0.00,,---,0.00,VWS V14.01,2013-09-08 06:23:00,
2013-09-08 02:28:00,63.7,61.6,29.93,WSW,243,0.0,2.0,93,0.00,,---,0.00,VWS V14.01,2013-09-08 06:28:00,
2013-09-08 02:33:00,63.8,61.7,29.93,SW,223,0.0,2.0,93,0.00,,---,0.00,VWS V14.01,2013-09-08 06:33:00,
2013-09-08 02:38:00,63.8,61.4,29.93,SW,223,0.0,2.0,92,0.00,,---,0.00,VWS V14.01,2013-09-08 06:38:00,
2013-09-08 02:43:00,63.9,61.5,29.93,West,279,0.0,2.0,92,0.00,,---,0.00,VWS V14.01,2013-09-08 06:43:00,
2013-09-08 02:48:00,63.8,61.7,29.93,SSW,211,0.0,2.0,93,0.00,,---,0.00,VWS V14.01,2013-09-08 06:48:00,
2013-09-08 02:53:00,63.8,61.7,29.92,WSW,250,0.0,2.0,93,0.00,,---,0.00,VWS V14.01,2013-09-08 06:53:00,
2013-09-08 02:58:00,63.8,61.7,29.93,WSW,239,0.0,2.0,93,0.00,,---,0.00,VWS V14.01,2013-09-08 06:58:00,
2013-09-08 03:03:00,63.8,61.7,29.92,South,173,0.0,1.0,93,0.00,,---,0.00,VWS V14.01,2013-09-08 07:03:00,
2013-09-08 03:08:00,63.9,61.8,29.92,West,269,0.0,1.0,93,0.00,,---,0.00,VWS V14.01,2013-09-08 07:08:00,
2013-09-08 03:13:00,63.9,61.8,29.92,West,281,0.0,2.0,93,0.00,,---,0.00,VWS V14.01,2013-09-08 07:13:00,
2013-09-08 03:18:00,64.0,61.9,29.92,WSW,251,0.0,2.0,93,0.00,,---,0.00,VWS V14.01,2013-09-08 07:18:00,
2013-09-08 03:23:00,64.0,61.9,29.92,WSW,250,0.0,2.0,93,0.00,,---,0.00,VWS V14.01,2013-09-08 07:23:00,
2013-09-08 03:28:00,64.1,62.0,29.92,WSW,247,0.0,2.0,93,0.00,,---,0.00,VWS V14.01,2013-09-08 07:28:00,
2013-09-08 03:33:00,64.1,62.0,29.92,West,266,0.0,1.0,93,0.00,,---,0.00,VWS V14.01,2013-09-08 07:33:00,
2013-09-08 03:38:00,64.1,62.0,29.92,West,266,0.0,1.0,93,0.00,,---,0.00,VWS V14.01,2013-09-08 07:38:00,
2013-09-08 03:43:00,64.1,62.0,29.92,West,266,0.0,1.0,93,0.00,,---,0.00,VWS V14.01,2013-09-08 07:43:00,
2013-09-08 03:48:00,64.1,62.3,29.92,SW,230,0.0,2.0,94,0.00,,---,0.00,VWS V14.01,2013-09-08 07:48:00,
2013-09-08 03:53:00,64.1,62.3,29.92,SSW,192,0.0,2.0,94,0.00,,---,0.00,VWS V14.01,2013-09-08 07:53:00,
2013-09-08 03:58:00,64.0,62.2,29.92,WSW,250,0.0,2.0,94,0.00,,---,0.00,VWS V14.01,2013-09-08 07:58:00,
2013-09-08 04:03:00,63.9,62.1,29.92,SSW,200,0.0,2.0,94,0.00,,---,0.00,VWS V14.01,2013-09-08 08:03:00,
2013-09-08 04:08:00,63.8,62.3,29.91,SW,236,0.0,2.0,95,0.00,,---,0.00,VWS V14.01,2013-09-08 08:08:00,
2013-09-08 04:13:00,63.7,62.2,29.91,West,265,0.0,2.0,95,0.00,,---,0.00,VWS V14.01,2013-09-08 08:13:00,
2013-09-08 04:18:00,63.7,62.2,29.92,WSW,252,0.0,2.0,95,0.00,,---,0.00,VWS V14.01,2013-09-08 08:18:00,
2013-09-08 04:23:00,63.7,62.2,29.91,West,265,0.0,2.0,95,0.00,,---,0.00,VWS V14.01,2013-09-08 08:23:00,
2013-09-08 04:28:00,63.6,62.2,29.91,SW,221,0.0,2.0,95,0.00,,---,0.00,VWS V14.01,2013-09-08 08:28:00,
2013-09-08 04:33:00,63.7,62.5,29.91,SW,226,0.0,2.0,96,0.00,,---,0.00,VWS V14.01,2013-09-08 08:33:00,
2013-09-08 04:38:00,63.6,62.4,29.91,WSW,250,0.0,2.0,96,0.00,,---,0.00,VWS V14.01,2013-09-08 08:38:00,
2013-09-08 04:43:00,63.6,62.4,29.91,SW,236,0.0,2.0,96,0.00,,---,0.00,VWS V14.01,2013-09-08 08:43:00,
2013-09-08 04:48:00,63.5,62.3,29.90,SW,236,0.0,2.0,96,0.00,,---,0.00,VWS V14.01,2013-09-08 08:48:00,
2013-09-08 04:53:00,63.6,62.4,29.90,WSW,252,0.0,3.0,96,0.00,,---,0.00,VWS V14.01,2013-09-08 08:53:00,
2013-09-08 04:58:00,63.6,62.4,29.90,WSW,252,0.0,3.0,96,0.00,,---,0.00,VWS V14.01,2013-09-08 08:58:00,
2013-09-08 05:03:00,63.6,62.4,29.90,WSW,255,0.0,1.0,96,0.00,,---,0.00,VWS V14.01,2013-09-08 09:03:00,
2013-09-08 05:08:00,63.6,62.4,29.90,WSW,243,0.0,1.0,96,0.00,,---,0.00,VWS V14.01,2013-09-08 09:08:00,
2013-09-08 05:13:00,63.6,62.4,29.90,WSW,241,0.0,1.0,96,0.00,,---,0.00,VWS V14.01,2013-09-08 09:13:00,
2013-09-08 05:18:00,63.6,62.4,29.90,WSW,241,0.0,1.0,96,0.00,,---,0.00,VWS V14.01,2013-09-08 09:18:00,
2013-09-08 05:23:00,63.5,62.3,29.90,SW,229,0.0,1.0,96,0.00,,---,0.00,VWS V14.01,2013-09-08 09:23:00,
2013-09-08 05:28:00,63.6,62.4,29.90,WSW,241,0.0,1.0,96,0.00,,---,0.00,VWS V14.01,2013-09-08 09:28:00,
2013-09-08 05:33:00,63.6,62.4,29.90,WSW,241,0.0,0.0,96,0.00,,---,0.00,VWS V14.01,2013-09-08 09:33:00,
2013-09-08 05:39:00,63.6,62.4,29.90,WSW,241,0.0,1.0,96,0.00,,---,0.00,VWS V14.01,2013-09-08 09:39:00,
2013-09-08 05:44:00,63.6,62.4,29.90,SW,223,0.0,2.0,96,0.00,,---,0.00,VWS V14.01,2013-09-08 09:44:00,
2013-09-08 05:49:00,63.6,62.4,29.90,SE,133,0.0,2.0,96,0.00,,---,0.00,VWS V14.01,2013-09-08 09:49:00,
2013-09-08 05:54:00,63.7,62.5,29.90,SW,226,0.0,2.0,96,0.00,,---,0.00,VWS V14.01,2013-09-08 09:54:00,
2013-09-08 05:59:00,63.7,62.5,29.90,WSW,252,0.0,2.0,96,0.00,,---,0.00,VWS V14.01,2013-09-08 09:59:00,
2013-09-08 06:04:00,63.8,62.6,29.90,WSW,252,0.0,2.0,96,0.00,,---,0.00,VWS V14.01,2013-09-08 10:04:00,
2013-09-08 06:09:00,63.8,62.6,29.90,SW,229,0.0,2.0,96,0.00,,---,0.00,VWS V14.01,2013-09-08 10:09:00,
2013-09-08 06:14:00,63.9,62.7,29.90,WSW,238,0.0,2.0,96,0.00,,---,0.00,VWS V14.01,2013-09-08 10:14:00,
2013-09-08 06:19:00,63.9,62.7,29.90,SW,233,0.0,2.0,96,0.00,,---,0.00,VWS V14.01,2013-09-08 10:19:00,
2013-09-08 06:24:00,64.0,62.8,29.90,SW,231,0.0,2.0,96,0.00,,---,0.00,VWS V14.01,2013-09-08 10:24:00,
2013-09-08 06:29:00,64.0,62.8,29.90,SW,231,0.0,2.0,96,0.00,,---,0.00,VWS V14.01,2013-09-08 10:29:00,
2013-09-08 06:34:00,64.0,62.8,29.90,SW,232,0.0,0.0,96,0.00,,---,0.00,VWS V14.01,2013-09-08 10:34:00,
2013-09-08 06:39:00,64.1,62.9,29.90,WSW,252,0.0,2.0,96,0.00,,---,0.00,VWS V14.01,2013-09-08 10:39:00,
2013-09-08 06:44:00,64.1,62.9,29.90,WSW,252,0.0,2.0,96,0.00,,---,0.00,VWS V14.01,2013-09-08 10:44:00,
2013-09-08 06:49:00,64.1,62.9,29.90,South,184,0.0,2.0,96,0.00,,---,0.00,VWS V14.01,2013-09-08 10:49:00,
2013-09-08 06:54:00,64.1,62.9,29.91,WSW,248,0.0,2.0,96,0.00,,---,0.00,VWS V14.01,2013-09-08 10:54:00,
2013-09-08 06:59:00,64.1,62.9,29.91,WSW,247,0.0,2.0,96,0.00,,---,0.00,VWS V14.01,2013-09-08 10:59:00,
2013-09-08 07:04:00,64.2,63.0,29.91,SW,218,0.0,2.0,96,0.00,,---,0.00,VWS V14.01,2013-09-08 11:04:00,
2013-09-08 07:09:00,64.3,63.1,29.91,WSW,238,0.0,2.0,96,0.00,,---,0.00,VWS V14.01,2013-09-08 11:09:00,
2013-09-08 07:14:00,64.5,63.3,29.91,WSW,238,0.0,2.0,96,0.00,,---,0.00,VWS V14.01,2013-09-08 11:14:00,
2013-09-08 07:19:00,64.6,63.4,29.90,SSE,149,0.0,2.0,96,0.00,,---,0.00,VWS V14.01,2013-09-08 11:19:00,
2013-09-08 07:24:00,64.8,63.6,29.90,SW,231,0.0,2.0,96,0.00,,---,0.00,VWS V14.01,2013-09-08 11:24:00,
2013-09-08 07:29:00,64.9,63.7,29.90,SW,228,0.0,2.0,96,0.00,,---,0.00,VWS V14.01,2013-09-08 11:29:00,
2013-09-08 07:34:00,65.1,63.9,29.90,SW,234,1.0,4.0,96,0.00,,---,0.00,VWS V14.01,2013-09-08 11:34:00,
2013-09-08 07:39:00,65.4,64.2,29.90,SW,227,0.0,4.0,96,0.00,,---,0.00,VWS V14.01,2013-09-08 11:39:00,
2013-09-08 07:44:00,65.6,64.1,29.90,ESE,113,0.0,4.0,95,0.00,,---,0.00,VWS V14.01,2013-09-08 11:44:00,
2013-09-08 07:49:00,65.9,64.4,29.90,WSW,258,0.0,4.0,95,0.00,,---,0.00,VWS V14.01,2013-09-08 11:49:00,
2013-09-08 07:54:00,66.3,64.5,29.90,SW,236,1.0,4.0,94,0.00,,---,0.00,VWS V14.01,2013-09-08 11:54:00,
2013-09-08 07:59:00,66.7,64.9,29.90,North,9,0.0,4.0,94,0.00,,---,0.00,VWS V14.01,2013-09-08 11:59:00,
2013-09-08 08:04:00,67.1,65.0,29.90,ENE,60,0.0,1.0,93,0.00,,---,0.00,VWS V14.01,2013-09-08 12:04:00,
2013-09-08 08:09:00,67.7,65.3,29.90,East,90,0.0,3.0,92,0.00,,---,0.00,VWS V14.01,2013-09-08 12:09:00,
2013-09-08 08:14:00,68.4,65.7,29.90,SSW,201,0.0,3.0,91,0.00,,---,0.00,VWS V14.01,2013-09-08 12:14:00,
2013-09-08 08:19:00,68.9,65.8,29.90,NNE,32,0.0,3.0,90,0.00,,---,0.00,VWS V14.01,2013-09-08 12:19:00,
2013-09-08 08:24:00,69.0,65.6,29.90,SE,140,0.0,3.0,89,0.00,,---,0.00,VWS V14.01,2013-09-08 12:24:00,
2013-09-08 08:29:00,69.4,66.0,29.90,North,357,0.0,3.0,89,0.00,,---,0.00,VWS V14.01,2013-09-08 12:29:00,
2013-09-08 08:34:00,69.6,65.9,29.90,WSW,258,0.0,2.0,88,0.00,,---,0.00,VWS V14.01,2013-09-08 12:34:00,
2013-09-08 08:39:00,70.0,66.0,29.90,WNW,284,0.0,3.0,87,0.00,,---,0.00,VWS V14.01,2013-09-08 12:39:00,
2013-09-08 08:44:00,70.4,66.3,29.90,SW,235,0.0,3.0,87,0.00,,---,0.00,VWS V14.01,2013-09-08 12:44:00,
2013-09-08 08:49:00,70.7,66.3,29.90,WSW,246,0.0,3.0,86,0.00,,---,0.00,VWS V14.01,2013-09-08 12:49:00,
2013-09-08 08:54:00,71.1,66.7,29.90,ESE,103,0.0,3.0,86,0.00,,---,0.00,VWS V14.01,2013-09-08 12:54:00,
2013-09-08 08:59:00,71.3,66.2,29.90,West,275,0.0,3.0,84,0.00,,---,0.00,VWS V14.01,2013-09-08 12:59:00,
2013-09-08 09:05:00,71.6,65.8,29.90,ENE,63,1.0,2.0,82,0.00,,---,0.00,VWS V14.01,2013-09-08 13:05:00,
2013-09-08 09:10:00,71.8,65.3,29.90,NE,53,0.0,4.0,80,0.00,,---,0.00,VWS V14.01,2013-09-08 13:10:00,
2013-09-08 09:15:00,72.2,65.7,29.90,WSW,252,0.0,4.0,80,0.00,,---,0.00,VWS V14.01,2013-09-08 13:15:00,
2013-09-08 09:20:00,72.6,65.3,29.90,SSE,155,0.0,4.0,78,0.00,,---,0.00,VWS V14.01,2013-09-08 13:20:00,
2013-09-08 09:25:00,73.1,65.8,29.90,ESE,105,1.0,4.0,78,0.00,,---,0.00,VWS V14.01,2013-09-08 13:25:00,
2013-09-08 09:30:00,73.4,65.4,29.90,NNE,28,1.0,6.0,76,0.00,,---,0.00,VWS V14.01,2013-09-08 13:30:00,
2013-09-08 09:35:00,74.0,65.6,29.90,East,92,0.0,3.0,75,0.00,,---,0.00,VWS V14.01,2013-09-08 13:35:00,
2013-09-08 09:40:00,74.6,66.2,29.90,WSW,255,0.0,3.0,75,0.00,,---,0.00,VWS V14.01,2013-09-08 13:40:00,
2013-09-08 09:45:00,75.2,66.0,29.90,SW,221,1.0,3.0,73,0.00,,---,0.00,VWS V14.01,2013-09-08 13:45:00,
2013-09-08 09:50:00,75.5,65.4,29.89,ENE,60,1.0,3.0,71,0.00,,---,0.00,VWS V14.01,2013-09-08 13:50:00,
2013-09-08 09:55:00,75.9,65.4,29.89,NNE,12,3.0,5.0,70,0.00,,---,0.00,VWS V14.01,2013-09-08 13:55:00,
2013-09-08 10:00:00,76.2,65.3,29.89,SE,128,0.0,7.0,69,0.00,,---,0.00,VWS V14.01,2013-09-08 14:00:00,
2013-09-08 10:05:00,76.6,64.4,29.89,SSW,204,0.0,5.0,66,0.00,,---,0.00,VWS V14.01,2013-09-08 14:05:00,
2013-09-08 10:10:00,76.7,64.9,29.89,SW,235,4.0,6.0,67,0.00,,---,0.00,VWS V14.01,2013-09-08 14:10:00,
2013-09-08 10:15:00,77.0,64.8,29.89,NW,324,0.0,6.0,66,0.00,,---,0.00,VWS V14.01,2013-09-08 14:15:00,
2013-09-08 10:20:00,77.5,65.3,29.89,SW,233,0.0,6.0,66,0.00,,---,0.00,VWS V14.01,2013-09-08 14:20:00,
2013-09-08 10:25:00,78.6,65.0,29.89,East,100,2.0,6.0,63,0.00,,---,0.00,VWS V14.01,2013-09-08 14:25:00,
2013-09-08 10:30:00,78.8,64.2,29.89,WSW,243,1.0,6.0,61,0.00,,---,0.00,VWS V14.01,2013-09-08 14:30:00,
2013-09-08 10:35:00,78.7,63.7,29.89,East,98,0.0,5.0,60,0.00,,---,0.00,VWS V14.01,2013-09-08 14:35:00,
2013-09-08 10:40:00,78.9,64.3,29.89,ENE,67,2.0,6.0,61,0.00,,---,0.00,VWS V14.01,2013-09-08 14:40:00,
2013-09-08 10:45:00,79.2,64.1,29.89,SSW,208,2.0,6.0,60,0.00,,---,0.00,VWS V14.01,2013-09-08 14:45:00,
2013-09-08 10:50:00,79.9,64.8,29.89,SE,126,1.0,7.0,60,0.00,,---,0.00,VWS V14.01,2013-09-08 14:50:00,
2013-09-08 10:55:00,80.3,64.2,29.89,ESE,121,2.0,7.0,58,0.00,,---,0.00,VWS V14.01,2013-09-08 14:55:00,
2013-09-08 11:00:00,80.3,64.7,29.89,SW,234,3.0,7.0,59,0.00,,---,0.00,VWS V14.01,2013-09-08 15:00:00,
2013-09-08 11:05:00,80.3,64.2,29.89,SSW,213,1.0,5.0,58,0.00,,---,0.00,VWS V14.01,2013-09-08 15:05:00,
2013-09-08 11:10:00,80.5,64.9,29.88,NNE,20,2.0,6.0,59,0.00,,---,0.00,VWS V14.01,2013-09-08 15:10:00,
2013-09-08 11:15:00,80.8,65.2,29.88,WSW,251,0.0,6.0,59,0.00,,---,0.00,VWS V14.01,2013-09-08 15:15:00,
2013-09-08 11:20:00,81.2,65.0,29.88,SW,226,0.0,6.0,58,0.00,,---,0.00,VWS V14.01,2013-09-08 15:20:00,
2013-09-08 11:25:00,81.4,65.7,29.88,East,89,2.0,6.0,59,0.00,,---,0.00,VWS V14.01,2013-09-08 15:25:00,
2013-09-08 11:30:00,81.9,66.2,29.88,WSW,245,2.0,2.0,59,0.00,,---,0.00,VWS V14.01,2013-09-08 15:30:00,
2013-09-08 11:35:00,81.9,66.2,29.88,NE,48,0.0,8.0,59,0.00,,---,0.00,VWS V14.01,2013-09-08 15:35:00,
2013-09-08 11:40:00,81.9,66.7,29.88,ENE,65,4.0,8.0,60,0.00,,---,0.00,VWS V14.01,2013-09-08 15:40:00,
2013-09-08 11:45:00,81.7,66.0,29.88,South,190,0.0,8.0,59,0.00,,---,0.00,VWS V14.01,2013-09-08 15:45:00,
2013-09-08 11:50:00,82.0,66.3,29.88,West,268,0.0,8.0,59,0.00,,---,0.00,VWS V14.01,2013-09-08 15:50:00,
2013-09-08 11:55:00,83.5,67.7,29.88,NNE,24,0.0,8.0,59,0.00,,---,0.00,VWS V14.01,2013-09-08 15:55:00,
2013-09-08 12:00:00,84.0,66.1,29.88,East,82,1.0,2.0,55,0.00,,---,0.00,VWS V14.01,2013-09-08 16:00:00,
2013-09-08 12:05:00,84.0,66.6,29.87,SE,141,1.0,3.0,56,0.00,,---,0.00,VWS V14.01,2013-09-08 16:05:00,
2013-09-08 12:11:00,83.6,66.3,29.87,WSW,248,3.0,5.0,56,0.00,,---,0.00,VWS V14.01,2013-09-08 16:11:00,
2013-09-08 12:16:00,83.0,66.2,29.87,SW,224,1.0,5.0,57,0.00,,---,0.00,VWS V14.01,2013-09-08 16:16:00,
2013-09-08 12:21:00,83.7,67.4,29.87,NNW,338,2.0,5.0,58,0.00,,---,0.00,VWS V14.01,2013-09-08 16:21:00,
2013-09-08 12:26:00,83.8,66.4,29.87,ENE,73,2.0,5.0,56,0.00,,---,0.00,VWS V14.01,2013-09-08 16:26:00,
2013-09-08 12:31:00,83.8,67.5,29.87,NW,304,4.0,4.0,58,0.00,,---,0.00,VWS V14.01,2013-09-08 16:31:00,
2013-09-08 12:36:00,83.6,66.3,29.87,WSW,255,3.0,6.0,56,0.00,,---,0.00,VWS V14.01,2013-09-08 16:36:00,
2013-09-08 12:41:00,83.8,66.4,29.87,ENE,61,1.0,6.0,56,0.00,,---,0.00,VWS V14.01,2013-09-08 16:41:00,
2013-09-08 12:46:00,84.0,66.6,29.87,NNE,25,3.0,7.0,56,0.00,,---,0.00,VWS V14.01,2013-09-08 16:46:00,
2013-09-08 12:51:00,84.0,68.1,29.87,ENE,72,2.0,7.0,59,0.00,,---,0.00,VWS V14.01,2013-09-08 16:51:00,
2013-09-08 12:56:00,84.3,67.4,29.87,NNE,32,0.0,7.0,57,0.00,,---,0.00,VWS V14.01,2013-09-08 16:56:00,
2013-09-08 13:01:00,85.1,68.2,29.87,SW,229,0.0,0.0,57,0.00,,---,0.00,VWS V14.01,2013-09-08 17:01:00,
2013-09-08 13:06:00,85.7,67.2,29.87,East,97,0.0,3.0,54,0.00,,---,0.00,VWS V14.01,2013-09-08 17:06:00,
2013-09-08 13:11:00,85.5,68.0,29.86,ENE,61,2.0,6.0,56,0.00,,---,0.00,VWS V14.01,2013-09-08 17:11:00,
2013-09-08 13:16:00,85.2,67.8,29.86,ENE,71,1.0,6.0,56,0.00,,---,0.00,VWS V14.01,2013-09-08 17:16:00,
2013-09-08 13:21:00,84.5,67.1,29.86,NE,55,3.0,6.0,56,0.00,,---,0.00,VWS V14.01,2013-09-08 17:21:00,
2013-09-08 13:26:00,84.5,67.1,29.86,SW,219,0.0,7.0,56,0.00,,---,0.00,VWS V14.01,2013-09-08 17:26:00,
2013-09-08 13:31:00,84.5,67.1,29.86,NW,304,3.0,3.0,56,0.00,,---,0.00,VWS V14.01,2013-09-08 17:31:00,
2013-09-08 13:36:00,84.9,67.5,29.86,ENE,57,1.0,3.0,56,0.00,,---,0.00,VWS V14.01,2013-09-08 17:36:00,
2013-09-08 13:41:00,85.4,67.4,29.86,NE,56,0.0,4.0,55,0.00,,---,0.00,VWS V14.01,2013-09-08 17:41:00,
2013-09-08 13:46:00,86.1,67.0,29.86,NE,41,1.0,4.0,53,0.00,,---,0.00,VWS V14.01,2013-09-08 17:46:00,
2013-09-08 13:51:00,86.7,67.5,29.86,SE,136,1.0,6.0,53,0.00,,---,0.00,VWS V14.01,2013-09-08 17:51:00,
2013-09-08 13:56:00,86.3,66.6,29.86,NW,310,1.0,7.0,52,0.00,,---,0.00,VWS V14.01,2013-09-08 17:56:00,
2013-09-08 14:01:00,85.5,66.4,29.87,East,91,1.0,3.0,53,0.00,,---,0.00,VWS V14.01,2013-09-08 18:01:00,
2013-09-08 14:06:00,84.8,67.4,29.86,NE,45,1.0,7.0,56,0.00,,---,0.00,VWS V14.01,2013-09-08 18:06:00,
2013-09-08 14:11:00,83.9,67.1,29.86,WSW,257,1.0,7.0,57,0.00,,---,0.00,VWS V14.01,2013-09-08 18:11:00,
2013-09-08 14:16:00,83.6,66.8,29.86,ENE,70,1.0,7.0,57,0.00,,---,0.00,VWS V14.01,2013-09-08 18:16:00,
2013-09-08 14:21:00,84.4,68.0,29.86,NE,35,1.0,7.0,58,0.00,,---,0.00,VWS V14.01,2013-09-08 18:21:00,
2013-09-08 14:26:00,84.4,67.5,29.86,WSW,257,2.0,7.0,57,0.00,,---,0.00,VWS V14.01,2013-09-08 18:26:00,
2013-09-08 14:31:00,85.0,68.1,29.86,ESE,104,0.0,2.0,57,0.00,,---,0.00,VWS V14.01,2013-09-08 18:31:00,
2013-09-08 14:36:00,85.3,67.3,29.86,NE,56,6.0,7.0,55,0.00,,---,0.00,VWS V14.01,2013-09-08 18:36:00,
2013-09-08 14:41:00,84.3,66.9,29.87,NE,41,0.0,7.0,56,0.00,,---,0.00,VWS V14.01,2013-09-08 18:41:00,
2013-09-08 14:46:00,84.1,67.2,29.87,NNE,28,1.0,7.0,57,0.00,,---,0.00,VWS V14.01,2013-09-08 18:46:00,
2013-09-08 14:51:00,83.8,68.0,29.86,NNE,13,6.0,7.0,59,0.00,,---,0.00,VWS V14.01,2013-09-08 18:51:00,
2013-09-08 14:56:00,83.7,67.9,29.86,East,81,2.0,7.0,59,0.00,,---,0.00,VWS V14.01,2013-09-08 18:56:00,
2013-09-08 15:01:00,83.7,67.4,29.86,NE,39,3.0,5.0,58,0.00,,---,0.00,VWS V14.01,2013-09-08 19:01:00,
2013-09-08 15:06:00,83.1,67.3,29.86,ENE,66,1.0,6.0,59,0.00,,---,0.00,VWS V14.01,2013-09-08 19:06:00,
2013-09-08 15:11:00,83.9,68.5,29.86,NE,56,2.0,6.0,60,0.00,,---,0.00,VWS V14.01,2013-09-08 19:11:00,
2013-09-08 15:17:00,83.4,66.6,29.86,NNE,24,1.0,6.0,57,0.00,,---,0.00,VWS V14.01,2013-09-08 19:17:00,
2013-09-08 15:22:00,82.4,67.1,29.86,NNE,15,2.0,6.0,60,0.00,,---,0.00,VWS V14.01,2013-09-08 19:22:00,
2013-09-08 15:27:00,82.3,67.5,29.87,WSW,251,0.0,6.0,61,0.00,,---,0.00,VWS V14.01,2013-09-08 19:27:00,
2013-09-08 15:32:00,82.4,67.1,29.86,NE,46,0.0,4.0,60,0.00,,---,0.00,VWS V14.01,2013-09-08 19:32:00,
2013-09-08 15:37:00,82.3,67.5,29.87,West,277,2.0,4.0,61,0.00,,---,0.00,VWS V14.01,2013-09-08 19:37:00,
2013-09-08 15:42:00,82.2,67.4,29.87,North,356,2.0,4.0,61,0.00,,---,0.00,VWS V14.01,2013-09-08 19:42:00,
2013-09-08 15:47:00,82.3,67.5,29.87,ENE,70,2.0,4.0,61,0.00,,---,0.00,VWS V14.01,2013-09-08 19:47:00,
2013-09-08 15:52:00,82.2,67.4,29.87,ENE,69,1.0,5.0,61,0.00,,---,0.00,VWS V14.01,2013-09-08 19:52:00,
2013-09-08 15:57:00,82.1,67.3,29.87,NNE,23,1.0,5.0,61,0.00,,---,0.00,VWS V14.01,2013-09-08 19:57:00,
2013-09-08 16:02:00,82.7,67.9,29.87,NE,56,1.0,2.0,61,0.00,,---,0.00,VWS V14.01,2013-09-08 20:02:00,
2013-09-08 16:07:00,83.1,68.3,29.87,NNE,31,1.0,3.0,61,0.00,,---,0.00,VWS V14.01,2013-09-08 20:07:00,
2013-09-08 16:12:00,84.0,67.7,29.87,SSW,212,2.0,6.0,58,0.00,,---,0.00,VWS V14.01,2013-09-08 20:12:00,
2013-09-08 16:17:00,83.1,66.8,29.88,ENE,75,2.0,7.0,58,0.00,,---,0.00,VWS V14.01,2013-09-08 20:17:00,
2013-09-08 16:22:00,81.6,66.9,29.88,SE,140,1.0,7.0,61,0.00,,---,0.00,VWS V14.01,2013-09-08 20:22:00,
2013-09-08 16:27:00,81.2,67.4,29.88,ENE,63,2.0,7.0,63,0.00,,---,0.00,VWS V14.01,2013-09-08 20:27:00,
2013-09-08 16:32:00,80.9,67.6,29.88,NNW,347,0.0,3.0,64,0.00,,---,0.00,VWS V14.01,2013-09-08 20:32:00,
2013-09-08 16:37:00,81.0,67.7,29.88,ENE,64,3.0,5.0,64,0.00,,---,0.00,VWS V14.01,2013-09-08 20:37:00,
2013-09-08 16:42:00,80.8,67.5,29.89,NW,325,1.0,6.0,64,0.00,,---,0.00,VWS V14.01,2013-09-08 20:42:00,
2013-09-08 16:47:00,80.4,66.7,29.89,NE,35,0.0,6.0,63,0.00,,---,0.00,VWS V14.01,2013-09-08 20:47:00,
2013-09-08 16:52:00,80.1,66.8,29.89,West,276,0.0,6.0,64,0.00,,---,0.00,VWS V14.01,2013-09-08 20:52:00,
2013-09-08 16:57:00,79.7,66.5,29.89,WNW,299,0.0,6.0,64,0.00,,---,0.00,VWS V14.01,2013-09-08 20:57:00,
2013-09-08 17:02:00,79.8,66.6,29.90,East,94,0.0,2.0,64,0.00,,---,0.00,VWS V14.01,2013-09-08 21:02:00,
2013-09-08 17:07:00,79.9,66.7,29.90,East,93,0.0,2.0,64,0.00,,---,0.00,VWS V14.01,2013-09-08 21:07:00,
2013-09-08 17:12:00,79.9,66.7,29.90,NE,44,0.0,4.0,64,0.00,,---,0.00,VWS V14.01,2013-09-08 21:12:00,
2013-09-08 17:17:00,79.5,67.2,29.90,NNW,346,0.0,4.0,66,0.00,,---,0.00,VWS V14.01,2013-09-08 21:17:00,
2013-09-08 17:22:00,79.2,67.3,29.90,NNE,21,0.0,4.0,67,0.00,,---,0.00,VWS V14.01,2013-09-08 21:22:00,
2013-09-08 17:27:00,78.9,67.0,29.90,WNW,293,0.0,4.0,67,0.00,,---,0.00,VWS V14.01,2013-09-08 21:27:00,
2013-09-08 17:32:00,79.0,66.7,29.90,East,90,0.0,1.0,66,0.00,,---,0.00,VWS V14.01,2013-09-08 21:32:00,
2013-09-08 17:37:00,78.8,66.5,29.90,NE,46,1.0,2.0,66,0.00,,---,0.00,VWS V14.01,2013-09-08 21:37:00,
2013-09-08 17:42:00,78.6,66.3,29.90,NE,44,0.0,2.0,66,0.00,,---,0.00,VWS V14.01,2013-09-08 21:42:00,
2013-09-08 17:47:00,78.6,66.3,29.90,East,79,0.0,2.0,66,0.00,,---,0.00,VWS V14.01,2013-09-08 21:47:00,
2013-09-08 17:52:00,78.5,66.6,29.90,North,1,0.0,2.0,67,0.00,,---,0.00,VWS V14.01,2013-09-08 21:52:00,
2013-09-08 17:57:00,78.5,66.6,29.90,WNW,289,0.0,2.0,67,0.00,,---,0.00,VWS V14.01,2013-09-08 21:57:00,
2013-09-08 18:02:00,78.2,66.4,29.90,NE,46,1.0,1.0,67,0.00,,---,0.00,VWS V14.01,2013-09-08 22:02:00,
2013-09-08 18:07:00,78.0,66.2,29.90,ENE,69,2.0,2.0,67,0.00,,---,0.00,VWS V14.01,2013-09-08 22:07:00,
2013-09-08 18:12:00,77.8,65.5,29.91,East,87,0.0,3.0,66,0.00,,---,0.00,VWS V14.01,2013-09-08 22:12:00,
2013-09-08 18:17:00,77.5,65.3,29.91,NNW,330,0.0,3.0,66,0.00,,---,0.00,VWS V14.01,2013-09-08 22:17:00,
2013-09-08 18:22:00,77.3,65.1,29.91,WNW,292,0.0,3.0,66,0.00,,---,0.00,VWS V14.01,2013-09-08 22:22:00,
2013-09-08 18:27:00,76.9,65.1,29.91,NNW,341,0.0,3.0,67,0.00,,---,0.00,VWS V14.01,2013-09-08 22:27:00,
2013-09-08 18:32:00,76.5,64.7,29.92,NNE,14,0.0,1.0,67,0.00,,---,0.00,VWS V14.01,2013-09-08 22:32:00,
2013-09-08 18:37:00,76.2,64.9,29.92,North,9,0.0,1.0,68,0.00,,---,0.00,VWS V14.01,2013-09-08 22:37:00,
2013-09-08 18:42:00,75.9,65.0,29.92,North,9,0.0,1.0,69,0.00,,---,0.00,VWS V14.01,2013-09-08 22:42:00,
2013-09-08 18:47:00,75.5,65.0,29.92,North,9,0.0,1.0,70,0.00,,---,0.00,VWS V14.01,2013-09-08 22:47:00,
2013-09-08 18:52:00,75.1,65.1,29.92,North,9,0.0,1.0,71,0.00,,---,0.00,VWS V14.01,2013-09-08 22:52:00,
2013-09-08 18:57:00,74.7,65.1,29.93,NW,314,0.0,1.0,72,0.00,,---,0.00,VWS V14.01,2013-09-08 22:57:00,
2013-09-08 19:02:00,74.3,65.1,29.93,NW,311,0.0,0.0,73,0.00,,---,0.00,VWS V14.01,2013-09-08 23:02:00,
2013-09-08 19:07:00,73.8,65.4,29.93,NW,311,0.0,0.0,75,0.00,,---,0.00,VWS V14.01,2013-09-08 23:07:00,
2013-09-08 19:12:00,73.4,65.0,29.93,NW,311,0.0,0.0,75,0.00,,---,0.00,VWS V14.01,2013-09-08 23:12:00,
2013-09-08 19:17:00,73.1,64.7,29.94,NW,311,0.0,0.0,75,0.00,,---,0.00,VWS V14.01,2013-09-08 23:17:00,
2013-09-08 19:22:00,72.7,64.7,29.94,NW,311,0.0,0.0,76,0.00,,---,0.00,VWS V14.01,2013-09-08 23:22:00,
2013-09-08 19:27:00,72.3,64.7,29.94,NW,311,0.0,0.0,77,0.00,,---,0.00,VWS V14.01,2013-09-08 23:27:00,
2013-09-08 19:32:00,71.9,64.7,29.94,North,2,0.0,0.0,78,0.00,,---,0.00,VWS V14.01,2013-09-08 23:32:00,
2013-09-08 19:37:00,71.5,64.7,29.95,NE,51,0.0,1.0,79,0.00,,---,0.00,VWS V14.01,2013-09-08 23:37:00,
2013-09-08 19:42:00,71.2,64.0,29.95,NE,51,0.0,1.0,78,0.00,,---,0.00,VWS V14.01,2013-09-08 23:42:00,
2013-09-08 19:47:00,71.0,63.8,29.95,NE,51,0.0,1.0,78,0.00,,---,0.00,VWS V14.01,2013-09-08 23:47:00,
2013-09-08 19:52:00,70.8,63.2,29.96,NE,51,0.0,1.0,77,0.00,,---,0.00,VWS V14.01,2013-09-08 23:52:00,
2013-09-08 19:57:00,70.4,63.2,29.96,NE,51,0.0,1.0,78,0.00,,---,0.00,VWS V14.01,2013-09-08 23:57:00,
2013-09-08 20:02:00,70.0,63.5,29.97,NE,51,0.0,0.0,80,0.00,,---,0.00,VWS V14.01,2013-09-09 00:02:00,
2013-09-08 20:07:00,69.7,63.3,29.97,NNE,18,0.0,0.0,80,0.00,,---,0.00,VWS V14.01,2013-09-09 00:07:00,
2013-09-08 20:12:00,69.7,62.9,29.98,SW,221,0.0,1.0,79,0.00,,---,0.00,VWS V14.01,2013-09-09 00:12:00,
2013-09-08 20:17:00,69.6,62.8,29.98,WSW,258,0.0,1.0,79,0.00,,---,0.00,VWS V14.01,2013-09-09 00:17:00,
2013-09-08 20:22:00,69.5,62.3,29.98,WNW,295,0.0,1.0,78,0.00,,---,0.00,VWS V14.01,2013-09-09 00:22:00,
2013-09-08 20:27:00,69.4,62.2,29.99,WNW,295,0.0,1.0,78,0.00,,---,0.00,VWS V14.01,2013-09-09 00:27:00,
2013-09-08 20:32:00,69.3,62.5,29.99,WNW,300,0.0,1.0,79,0.00,,---,0.00,VWS V14.01,2013-09-09 00:32:00,
2013-09-08 20:37:00,69.1,62.0,29.99,SW,232,0.0,1.0,78,0.00,,---,0.00,VWS V14.01,2013-09-09 00:37:00,
2013-09-08 20:42:00,69.0,61.9,29.99,SW,232,0.0,1.0,78,0.00,,---,0.00,VWS V14.01,2013-09-09 00:42:00,
2013-09-08 20:47:00,68.8,62.0,30.00,SW,232,0.0,1.0,79,0.00,,---,0.00,VWS V14.01,2013-09-09 00:47:00,
2013-09-08 20:52:00,68.5,61.0,30.00,SW,228,0.0,1.0,77,0.00,,---,0.00,VWS V14.01,2013-09-09 00:52:00,
2013-09-08 20:57:00,68.3,60.5,30.00,North,349,0.0,1.0,76,0.00,,---,0.00,VWS V14.01,2013-09-09 00:57:00,
2013-09-08 21:02:00,68.1,59.9,30.01,North,349,0.0,0.0,75,0.00,,---,0.00,VWS V14.01,2013-09-09 01:02:00,
2013-09-08 21:07:00,68.0,59.8,30.01,ENE,61,0.0,0.0,75,0.00,,---,0.00,VWS V14.01,2013-09-09 01:07:00,
2013-09-08 21:12:00,67.7,60.2,30.01,ENE,61,0.0,0.0,77,0.00,,---,0.00,VWS V14.01,2013-09-09 01:12:00,
2013-09-08 21:17:00,67.3,59.5,30.02,ENE,61,0.0,0.0,76,0.00,,---,0.00,VWS V14.01,2013-09-09 01:17:00,
2013-09-08 21:22:00,67.1,58.9,30.02,NNE,32,0.0,1.0,75,0.00,,---,0.00,VWS V14.01,2013-09-09 01:22:00,
2013-09-08 21:27:00,67.0,58.5,30.02,NNE,30,0.0,1.0,74,0.00,,---,0.00,VWS V14.01,2013-09-09 01:27:00,
2013-09-08 21:32:00,66.7,58.5,30.02,NNE,30,0.0,0.0,75,0.00,,---,0.00,VWS V14.01,2013-09-09 01:32:00,
2013-09-08 21:37:00,66.4,58.6,30.02,WSW,255,0.0,0.0,76,0.00,,---,0.00,VWS V14.01,2013-09-09 01:37:00,
2013-09-08 21:42:00,66.0,58.2,30.03,WSW,255,0.0,1.0,76,0.00,,---,0.00,VWS V14.01,2013-09-09 01:42:00,
2013-09-08 21:47:00,65.6,58.2,30.03,WSW,253,0.0,1.0,77,0.00,,---,0.00,VWS V14.01,2013-09-09 01:47:00,
2013-09-08 21:52:00,65.4,57.7,30.03,WSW,255,0.0,1.0,76,0.00,,---,0.00,VWS V14.01,2013-09-09 01:52:00,
2013-09-08 21:57:00,65.2,57.5,30.04,WSW,255,0.0,1.0,76,0.00,,---,0.00,VWS V14.01,2013-09-09 01:57:00,
2013-09-08 22:02:00,65.0,56.2,30.04,WSW,256,0.0,0.0,73,0.00,,---,0.00,VWS V14.01,2013-09-09 02:02:00,
2013-09-08 22:07:00,64.7,56.6,30.04,WSW,256,0.0,0.0,75,0.00,,---,0.00,VWS V14.01,2013-09-09 02:07:00,
2013-09-08 22:12:00,64.3,56.2,30.04,WSW,256,0.0,0.0,75,0.00,,---,0.00,VWS V14.01,2013-09-09 02:12:00,
2013-09-08 22:17:00,64.2,55.8,30.05,WSW,256,0.0,1.0,74,0.00,,---,0.00,VWS V14.01,2013-09-09 02:17:00,
2013-09-08 22:22:00,63.9,55.5,30.05,WSW,256,0.0,1.0,74,0.00,,---,0.00,VWS V14.01,2013-09-09 02:22:00,
2013-09-08 22:27:00,63.7,55.6,30.06,WSW,255,0.0,1.0,75,0.00,,---,0.00,VWS V14.01,2013-09-09 02:27:00,
2013-09-08 22:32:00,63.5,55.8,30.06,WSW,255,0.0,0.0,76,0.00,,---,0.00,VWS V14.01,2013-09-09 02:32:00,
2013-09-08 22:37:00,63.0,55.0,30.06,WSW,255,0.0,0.0,75,0.00,,---,0.00,VWS V14.01,2013-09-09 02:37:00,
2013-09-08 22:42:00,62.8,54.0,30.06,WSW,256,0.0,1.0,73,0.00,,---,0.00,VWS V14.01,2013-09-09 02:42:00,
2013-09-08 22:47:00,62.5,54.1,30.07,WSW,256,0.0,1.0,74,0.00,,---,0.00,VWS V14.01,2013-09-09 02:47:00,
2013-09-08 22:52:00,62.2,54.2,30.07,WSW,256,0.0,1.0,75,0.00,,---,0.00,VWS V14.01,2013-09-09 02:52:00,
2013-09-08 22:57:00,62.2,52.7,30.07,ENE,68,0.0,1.0,71,0.00,,---,0.00,VWS V14.01,2013-09-09 02:57:00,
2013-09-08 23:02:00,62.3,52.4,30.07,ENE,58,0.0,1.0,70,0.00,,---,0.00,VWS V14.01,2013-09-09 03:02:00,
2013-09-08 23:07:00,62.4,52.1,30.07,ENE,58,0.0,1.0,69,0.00,,---,0.00,VWS V14.01,2013-09-09 03:07:00,
2013-09-08 23:12:00,62.2,52.3,30.07,ENE,57,0.0,1.0,70,0.00,,---,0.00,VWS V14.01,2013-09-09 03:12:00,
2013-09-08 23:17:00,62.1,51.8,30.08,ENE,57,0.0,1.0,69,0.00,,---,0.00,VWS V14.01,2013-09-09 03:17:00,
2013-09-08 23:22:00,61.9,50.8,30.07,ENE,58,0.0,1.0,67,0.00,,---,0.00,VWS V14.01,2013-09-09 03:22:00,
2013-09-08 23:27:00,61.6,50.5,30.07,ENE,58,0.0,1.0,67,0.00,,---,0.00,VWS V14.01,2013-09-09 03:27:00,
2013-09-08 23:32:00,61.2,51.0,30.08,ENE,57,0.0,0.0,69,0.00,,---,0.00,VWS V14.01,2013-09-09 03:32:00,
2013-09-08 23:37:00,60.8,50.2,30.08,ENE,57,0.0,0.0,68,0.00,,---,0.00,VWS V14.01,2013-09-09 03:37:00,
2013-09-08 23:42:00,60.4,50.2,30.08,ENE,58,0.0,0.0,69,0.00,,---,0.00,VWS V14.01,2013-09-09 03:42:00,
2013-09-08 23:47:00,60.1,51.1,30.08,ENE,58,0.0,0.0,72,0.00,,---,0.00,VWS V14.01,2013-09-09 03:47:00,
2013-09-08 23:52:00,59.8,51.1,30.08,ENE,57,0.0,0.0,73,0.00,,---,0.00,VWS V14.01,2013-09-09 03:52:00,
2013-09-08 23:57:00,59.4,50.4,30.08,WSW,251,0.0,0.0,72,0.00,,---,0.00,VWS V14.01,2013-09-09 03:57:00,